Terminal Aerodrome Forecast
Issued by NWS Duluth, MN

Home | Current Version | Previous Version | Text Only | Print | Product List | Glossary On
Versions: 1 2 3 4 5 6 7 8 9 10 11 12 13 14 15 16 17 18 19 20 21 22
000
FTUS43 KDLH 291135
TAFDLH
TAF
KDLH 291135Z 2912/3012 26020G30KT P6SM BKN040
     FM291500 27022G37KT P6SM BKN050
     FM300200 28010G18KT P6SM FEW060=

USA.gov is the U.S. government's official web portal to all federal, state and local government web resources and services.